Погода в Англете

Франция     43°28′48″N   1°31′31″W
темп.,
°C
ветер,
м/с
пор.,
м/с
влажн.,
%
обл.,
%
осадки,
мм/ч
давл.,
гПа
погр.,
м
12 апреля, пн
пн1223:00+9сз586718 0.8 1026929
02:00+8ссз456143 0.9 1027852
05:00+7ссв357259 0.1 1027585
08:00+4в348822 0.1 1029134
11:00+8в236811 0.0 1030799
14:00+11с34546 0.0 10291169
17:00+11ссз54595 0.0 1028934
20:00+10с356575 0.0 1028282
13 апреля, вт
вт1323:00+7юв237753 0.0 102976
02:00+6в4777100 0.0 1029220
05:00+5в4875100 0.0 1027207
08:00+4в4878100 0.0 1027193
11:00+9в51057100 0.0 1027626
14:00+13в6842100 0.0 10261089
17:00+14в6844100 0.0 1024833
20:00+12в5105776 0.0 1023474
14 апреля, ср
ср1423:00+8вюв4971100 0.0 1024218
02:00+7в4673100 0.0 1023137
05:00+7в367364 0.0 1022151
08:00+6в357771 0.0 1023130
11:00+11всв345791 0.0 1023423
14:00+15ссв23455 0.0 1022755
17:00+14ссз44515 0.0 1020681
20:00+12з23695 0.0 102052
15 апреля, чт
чт1523:00+9вюв127285 0.0 102141
02:00+7в367453 0.0 1021171
05:00+5в367334 0.0 1021172
08:00+4в367529 0.0 1022156
11:00+10всв34525 0.0 1022510
14:00+14ссв234147 0.0 1020846
17:00+13сз55490 0.0 1019613
20:00+12зсз34650 0.0 1018187
16 апреля, пт
пт1623:00+9юз57730 0.0 1019208
02:00+8з12720 0.0 1020121
05:00+7ссз12750 0.0 1019151
08:00+7с13746 0.0 1020363
11:00+10ссз556110 0.0 10201111
14:00+10сз67555 0.1 10201438
17:00+10ссз79585 0.4 10201671
20:00+9ссз796341 0.6 10211153